#timestamp,LO_Frequency,Hit,StdDev 
1635631215.3,286047004.0,N
1635631235.1,286047001.8,N
1635631255.8,286047002.6,N
1635631275.7,286047002.2,N
1635631295.5,286047002.5,N
1635631315.4,286047000.4,N
1635631335.2,286047001.1,N
1635631355.0,286046998.1,N
1635631355.9,286046998.1,N
1635631375.8,286046998.4,N
1635631395.6,286047000.5,N
1635631415.5,286047002.5,N
1635631435.3,286047001.4,N
1635631455.1,286047005.6,N
1635631475.9,286047005.7,N
1635631495.7,286047004.7,N
1635631515.5,286047006.4,N
1635631535.4,286047006.3,N
1635631555.2,286047006.7,N
1635631575.1,286047004.5,N
1635631576.0,286047004.5,N
1635631595.8,286047005.6,N
1635631615.6,286047001.5,N
1635631635.5,286047005.2,N
1635631655.3,286047004.7,N
1635631675.2,286047004.7,N
1635631695.9,286047003.2,N
1635631715.7,286047003.7,N
1635631735.6,286047002.9,N
1635631755.4,286047005.5,N
1635631775.2,286047005.6,N
1635631795.1,286047003.2,N
1635631796.0,286047003.2,N
1635631815.8,286047001.4,N
1635631835.7,286047001.7,N
1635631855.5,286046999.9,N
1635631875.3,286047001.0,N
1635631895.2,286046998.8,N
1635631915.0,286046996.6,N
1635631915.9,286046996.6,N
1635631935.7,286046999.4,N
1635631955.6,286046999.5,N
1635631975.4,286046997.0,N
1635631995.3,286047000.9,N
1635632015.1,286046998.3,N
1635632016.0,286046998.3,N
1635632035.8,286046997.0,N
1635632055.7,286046999.0,N
1635632075.5,286047001.2,N
1635632095.4,286047002.5,N
1635632115.2,286047004.3,N
1635632135.0,286047003.5,N
1635632135.9,286047003.5,N
1635632155.8,286047004.1,N
1635632175.6,286047001.5,N
1635632195.4,286047003.6,N
1635632215.3,286047002.5,N
1635632235.1,286047001.8,N
1635632255.9,286047003.2,N
1635632275.7,286047003.3,N
1635632295.5,286047001.5,N
1635632315.4,286047001.8,N
1635632335.2,286047001.5,N
1635632355.0,286047001.9,N
1635632355.9,286047001.9,N
1635632375.8,286047002.9,N
1635632395.6,286047002.4,N
1635632415.5,286047002.8,N
1635632435.3,286047004.4,N
1635632455.1,286047003.6,N
1635632475.9,286047003.9,N
1635632495.7,286047004.1,N
1635632515.5,286047001.5,N
1635632535.4,286047003.6,N
1635632555.2,286047003.2,N
1635632575.1,286047003.8,N
1635632576.0,286047003.8,N
1635632595.8,286047004.2,Y
1635632615.6,286047001.5,P
1635632635.5,286047002.6,P
1635632655.3,286047004.1,P
1635632675.2,286047003.4,Y
1635632695.9,286047000.5,P
1635632715.7,286047002.0,N
1635632735.6,286047004.3,P
1635632755.4,286047003.7,N
1635632775.2,286047000.1,N
1635632795.1,286047002.6,N
1635632796.0,286047002.6,N
1635632815.8,286047003.9,N
1635632835.7,286047001.9,N
1635632855.5,286047004.0,Y
1635632875.3,286047001.9,P
1635632895.2,286047004.4,P
1635632915.0,286046999.8,N
1635632915.9,286046999.8,N
1635632935.8,286046999.9,N
1635632955.6,286047000.7,N
1635632975.4,286046998.4,N
1635632995.3,286046999.2,N
1635633015.1,286047001.2,N
1635633035.8,286047002.0,N
1635633055.7,286047004.3,N
1635633075.5,286047003.9,N
1635633095.4,286047003.8,N
1635633115.2,286047001.5,N
1635633135.0,286047001.7,N
1635633135.9,286047001.7,N
1635633155.8,286047004.2,N
1635633175.6,286047003.5,N
1635633195.5,286047003.8,N
1635633215.3,286047002.2,N
1635633235.1,286046999.7,N
1635633255.9,286047000.7,N
1635633275.7,286047001.9,N
1635633295.5,286047000.2,N
1635633315.4,286046999.8,N
1635633335.2,286046999.7,N
1635633355.1,286047002.5,N
1635633356.0,286047002.5,N
1635633375.8,286047000.8,N
1635633395.6,286046998.2,N
1635633415.5,286046999.6,N
1635633435.3,286046998.8,N
1635633455.1,286046998.2,N
1635633475.9,286046998.4,N
1635633495.7,286046998.7,N
1635633515.6,286046998.4,N
1635633535.4,286046996.7,N
1635633555.2,286046999.2,N
1635633575.1,286047000.0,N
1635633576.0,286047000.0,N
1635633595.8,286047002.0,N
1635633615.6,286047002.0,N
1635633635.5,286047000.8,N
1635633655.3,286046999.9,N
1635633675.2,286047003.8,N
1635633695.9,286047004.4,N
1635633715.7,286047001.3,N
1635633735.6,286047000.2,N
1635633755.4,286047001.7,N
1635633775.2,286047001.8,N
1635633795.1,286047001.3,N
1635633796.0,286047001.3,N
1635633815.8,286047003.9,N
1635633835.7,286047001.9,N
1635633855.5,286047001.9,N
1635633875.3,286047004.1,N
1635633895.2,286047002.5,N
1635633915.0,286047002.6,N
1635633915.9,286047002.6,N
1635633965.8,286047004.1,E
1635633975.7,286047002.7,N
1635633995.5,286047000.6,P
1635634015.4,286046999.9,N
1635634035.2,286047001.0,N
1635634055.1,286047000.8,N
1635634056.0,286047000.8,N
1635634075.8,286047000.0,N
1635634095.6,286047001.5,N
1635634115.5,286047000.1,N
1635634135.3,286046999.7,N
1635634155.1,286047000.3,N
1635634175.9,286047000.3,N
1635634195.7,286047002.7,Y
1635634215.6,286047001.1,P
1635634235.4,286047001.2,P
1635634255.2,286047003.3,P
1635634275.1,286047001.4,N
1635634276.0,286047001.4,N
1635634295.8,286047002.1,N
1635634315.7,286047002.0,N
1635634335.5,286047002.6,Y
1635634355.3,286046999.8,P
1635634375.2,286046999.8,N
1635634395.0,286046999.4,N
1635634395.9,286046999.4,N
1635634415.7,286046997.5,Y
1635634435.6,286046997.8,P
1635634455.4,286046996.8,N
1635634475.3,286046996.3,N
1635634495.1,286046995.8,N
1635634496.0,286046995.8,N
1635634515.8,286046993.4,Y
1635634535.7,286046998.3,P
1635634555.5,286046998.8,N
1635634575.4,286047000.1,N
1635634595.2,286047000.3,N
1635634615.0,286047000.2,N
1635634615.9,286047000.2,N
1635634635.8,286046999.8,N
1635634655.6,286047001.8,N
1635634675.4,286047001.3,N
1635634695.3,286047002.1,N
1635634715.1,286047002.4,N
1635634735.9,286047002.3,N
1635634755.7,286047001.8,N
1635634775.5,286047001.9,N
1635634795.4,286047000.3,N
